"Date","Time","Temp","SpCond","Salinity","DO%","DO Conc","Depth","pH","Turbidity+"
"M/D/Y","hh:mm:ss","C","mS/cm","ppt","%","mg/L","m","","NTU"
"10/28/09","07:45:18",26.46,0.003,0.00,99.3,7.99,0.059,4.61,-0.5
"10/28/09","08:00:19",25.14,0.003,0.00,99.7,8.21,0.060,5.15,-0.5
"10/28/09","08:15:19",24.37,0.003,0.00,99.6,8.32,0.063,5.21,-0.4
"10/28/09","08:30:19",23.88,0.003,0.00,99.4,8.39,0.049,5.36,-0.4
"10/28/09","08:45:19",23.42,0.003,0.00,99.3,8.45,0.039,5.48,-0.4
"10/28/09","09:00:19",23.21,0.003,0.00,99.2,8.48,0.054,5.35,-0.4
"10/28/09","09:15:19",22.99,0.004,0.00,99.1,8.50,0.055,5.44,-0.4
"10/28/09","09:30:19",22.89,0.004,0.00,98.9,8.50,0.047,5.46,-0.4
"10/28/09","09:45:19",22.75,0.004,0.00,99.0,8.53,0.063,5.56,-0.4
"10/28/09","10:00:19",22.68,0.004,0.00,98.7,8.52,0.039,5.45,-0.4
"10/28/09","10:15:19",22.83,0.004,0.00,98.6,8.48,0.068,5.40,-0.4
"10/28/09","10:30:19",22.89,0.005,0.00,98.7,8.48,0.068,5.38,-0.4
"10/28/09","10:45:19",23.67,0.005,0.00,98.6,8.35,0.068,4.98,-0.5
"10/28/09","11:00:19",24.59,0.006,0.00,98.1,8.17,0.062,4.54,-0.4
"10/28/09","11:15:19",24.14,0.006,0.00,98.1,8.24,0.057,4.61,-0.5
"10/28/09","11:30:18",23.42,0.007,0.00,98.2,8.36,0.064,4.73,-0.4
"10/28/09","11:45:18",22.68,0.006,0.00,98.1,8.47,0.052,4.91,-0.4
"10/28/09","12:00:18",21.89,0.006,0.00,98.0,8.59,0.033,5.11,-0.4
"10/28/09","12:15:18",21.63,0.006,0.00,98.1,8.64,0.054,5.15,-0.4
"10/28/09","12:30:18",21.70,0.005,0.00,98.3,8.64,0.062,4.69,-0.4
"10/28/09","12:45:20",23.68,19.443,11.57,72.1,5.72,1.722,7.88,39.1
"10/28/09","13:00:19",23.74,15.096,8.79,75.4,6.06,1.685,7.84,14.1
"10/28/09","13:15:18",23.71,15.431,9.00,74.8,6.02,1.651,7.83,8.2
"10/28/09","13:30:18",23.76,15.200,8.86,75.9,6.10,1.613,7.83,8.7
"10/28/09","13:45:18",23.80,14.374,8.34,78.0,6.28,1.569,7.83,5.6
"10/28/09","14:00:18",23.74,14.049,8.13,76.6,6.19,1.540,7.82,4.2
"10/28/09","14:15:18",23.75,13.277,7.65,75.6,6.12,1.502,7.81,4.7
"10/28/09","14:30:18",23.74,12.276,7.03,75.8,6.16,1.468,7.79,5.3
"10/28/09","14:45:17",23.77,10.662,6.04,75.8,6.19,1.441,7.79,5.9
"10/28/09","15:00:17",23.78,9.223,5.17,76.5,6.28,1.434,7.79,5.1
"10/28/09","15:15:18",23.77,9.119,5.10,76.2,6.26,1.430,7.78,1.8
"10/28/09","15:30:18",23.75,8.822,4.93,75.8,6.23,1.415,7.78,2.8
"10/28/09","15:45:18",23.82,8.222,4.57,76.2,6.27,1.404,7.78,2.4
"10/28/09","16:00:18",23.86,8.050,4.46,74.9,6.16,1.423,7.77,1.4
"10/28/09","16:15:19",23.86,8.416,4.68,74.3,6.10,1.418,7.77,0.9
"10/28/09","16:30:18",23.84,8.723,4.87,74.7,6.14,1.432,7.77,1.1
"10/28/09","16:45:18",23.86,7.675,4.24,75.4,6.21,1.445,7.77,0.7
"10/28/09","17:00:18",23.87,7.972,4.42,74.8,6.15,1.476,7.77,1.0
"10/28/09","17:15:18",23.85,7.985,4.42,73.0,6.01,1.513,7.76,0.6
"10/28/09","17:30:18",24.00,20.596,12.32,82.7,6.49,1.539,7.89,5.8
"10/28/09","17:45:18",24.04,23.948,14.52,81.4,6.30,1.580,7.90,7.0
"10/28/09","18:00:18",24.09,24.083,14.61,72.8,5.63,1.591,7.86,12.0
"10/28/09","18:15:18",24.26,24.235,14.71,73.9,5.69,1.618,7.90,6.6
"10/28/09","18:30:18",24.56,23.351,14.12,77.7,5.97,1.656,7.95,6.8
"10/28/09","18:45:18",24.86,25.706,15.68,97.7,7.41,1.683,8.06,5.4
"10/28/09","19:00:18",24.76,25.688,15.67,89.1,6.76,1.710,8.00,4.2
"10/28/09","19:15:17",24.74,27.933,17.17,102.4,7.71,1.746,8.11,5.3
"10/28/09","19:30:18",24.64,30.730,19.08,99.6,7.43,1.786,8.12,7.0
"10/28/09","19:45:17",24.62,31.578,19.66,97.2,7.23,1.825,8.10,7.5
"10/28/09","20:00:18",24.57,32.264,20.13,95.7,7.11,1.834,8.09,9.2
"10/28/09","20:15:18",24.48,33.853,21.23,92.4,6.83,1.861,8.08,10.5
"10/28/09","20:30:18",24.44,34.292,21.53,91.5,6.76,1.900,8.07,11.4
"10/28/09","20:45:18",24.39,34.885,21.94,89.3,6.58,1.901,8.07,14.8
"10/28/09","21:00:18",24.39,35.185,22.15,89.3,6.57,1.924,8.09,18.0
"10/28/09","21:15:18",24.43,35.579,22.43,94.4,6.94,1.955,8.11,16.1
"10/28/09","21:30:18",24.42,36.296,22.93,90.2,6.61,1.986,8.10,26.1
"10/28/09","21:45:18",24.36,37.163,23.53,88.6,6.48,2.014,8.10,22.1
"10/28/09","22:00:18",24.28,37.802,23.98,87.5,6.39,2.010,8.11,20.5
"10/28/09","22:15:18",24.22,38.320,24.35,85.6,6.25,2.032,8.11,15.3
"10/28/09","22:30:18",24.16,38.752,24.66,84.9,6.19,2.018,8.11,15.2
"10/28/09","22:45:18",24.13,39.047,24.86,84.0,6.12,2.018,8.11,14.3
"10/28/09","23:00:18",24.12,39.157,24.94,82.3,5.99,1.999,8.10,10.1
"10/28/09","23:15:18",24.10,39.277,25.03,81.6,5.94,1.976,8.09,10.5
"10/28/09","23:30:18",24.10,39.305,25.05,79.3,5.78,1.983,8.08,9.0
"10/28/09","23:45:18",24.10,39.279,25.03,78.6,5.72,1.951,8.08,9.4
"10/29/09","00:00:18",24.14,39.103,24.90,75.2,5.48,1.929,8.07,8.3
"10/29/09","00:15:17",24.16,38.792,24.68,67.5,4.92,1.891,8.02,6.4
"10/29/09","00:30:18",24.40,36.509,23.08,66.9,4.90,1.870,7.98,6.9
"10/29/09","00:45:18",24.66,33.619,21.06,75.5,5.57,1.838,7.99,6.7
"10/29/09","01:00:18",24.83,25.221,15.35,80.7,6.13,1.784,7.96,10.2
"10/29/09","01:15:18",24.78,23.995,14.54,82.2,6.28,1.733,7.96,33.5
"10/29/09","01:30:18",24.72,24.060,14.58,81.5,6.23,1.702,7.95,6.8
"10/29/09","01:45:18",24.51,20.557,12.28,79.2,6.16,1.645,7.91,6.9
"10/29/09","02:00:18",24.35,18.743,11.11,76.8,6.03,1.603,7.88,6.5
"10/29/09","02:15:18",24.16,15.181,8.84,74.9,5.98,1.561,7.84,8.3
"10/29/09","02:30:18",24.08,13.251,7.63,73.7,5.93,1.520,7.81,12.3
"10/29/09","02:45:18",24.02,12.179,6.97,72.3,5.85,1.473,7.79,8.6
"10/29/09","03:00:18",23.94,10.808,6.13,71.5,5.82,1.451,7.78,5.9
"10/29/09","03:15:18",23.88,9.766,5.49,70.9,5.80,1.423,7.77,6.8
"10/29/09","03:30:18",23.81,8.433,4.69,70.4,5.79,1.419,7.76,4.8
"10/29/09","03:45:18",23.75,7.521,4.15,70.5,5.82,1.393,7.76,5.3
"10/29/09","04:00:18",23.70,6.661,3.64,70.7,5.87,1.367,7.76,7.5
"10/29/09","04:15:18",23.67,5.999,3.26,70.6,5.87,1.357,7.76,4.9
"10/29/09","04:30:18",23.63,5.519,2.98,70.3,5.85,1.369,7.76,3.4
"10/29/09","04:45:18",23.60,5.038,2.71,70.9,5.92,1.383,7.76,1.0
"10/29/09","05:00:18",23.92,24.192,14.68,63.7,4.94,1.397,7.77,6.1
"10/29/09","05:15:18",24.06,33.311,20.86,61.5,4.59,1.409,7.88,7.0
"10/29/09","05:30:18",24.08,35.416,22.32,59.1,4.37,1.436,7.91,7.7
"10/29/09","05:45:18",24.05,35.770,22.57,55.1,4.08,1.453,7.89,7.8
"10/29/09","06:00:18",24.05,34.439,21.64,52.5,3.90,1.489,7.88,11.2
"10/29/09","06:15:18",24.06,35.389,22.30,52.2,3.86,1.523,7.88,8.1
"10/29/09","06:30:18",24.12,35.691,22.51,50.6,3.74,1.540,7.86,39.1
"10/29/09","06:45:17",24.19,35.118,22.11,55.5,4.10,1.579,7.90,10.6
"10/29/09","07:00:18",24.18,36.795,23.28,52.1,3.82,1.609,7.89,12.5
"10/29/09","07:15:18",24.16,36.405,23.01,43.5,3.20,1.640,7.81,8.6
"10/29/09","07:30:18",24.10,34.572,21.73,53.1,3.94,1.690,7.89,12.6
"10/29/09","07:45:17",24.10,34.820,21.90,51.2,3.80,1.724,7.90,9.5
"10/29/09","08:00:17",24.07,36.087,22.79,49.1,3.62,1.769,7.87,14.3
"10/29/09","08:15:18",23.86,38.117,24.21,53.6,3.93,1.814,7.92,20.0
"10/29/09","08:30:18",23.85,39.190,24.97,50.6,3.70,1.842,7.91,14.7
"10/29/09","08:45:18",23.84,39.532,25.21,55.7,4.07,1.878,7.95,15.1
"10/29/09","09:00:18",23.80,39.720,25.35,54.1,3.95,1.909,7.93,13.4
"10/29/09","09:15:18",23.82,39.298,25.05,60.9,4.45,1.931,7.98,17.5
"10/29/09","09:30:18",23.76,39.510,25.20,66.6,4.87,1.943,8.01,14.2
"10/29/09","09:45:18",23.76,40.563,25.94,65.6,4.78,1.964,8.01,14.2
"10/29/09","10:00:19",23.77,40.072,25.60,66.9,4.89,1.977,8.02,13.6
"10/29/09","10:15:18",23.79,39.854,25.44,72.6,5.31,1.995,8.06,11.3
"10/29/09","10:30:18",23.81,40.169,25.66,76.4,5.57,1.986,8.08,10.3
"10/29/09","10:45:18",23.88,41.007,26.26,77.6,5.63,1.982,8.09,7.1
"10/29/09","11:00:17",23.96,39.751,25.37,78.9,5.75,1.973,8.09,7.8
"10/29/09","11:15:18",24.00,39.665,25.30,81.5,5.94,1.975,8.10,7.9
"10/29/09","11:30:18",24.00,41.814,26.83,79.7,5.75,1.958,8.09,6.4
"10/29/09","11:45:19",24.03,40.223,25.70,79.9,5.81,1.940,8.09,6.7
"10/29/09","12:00:18",23.95,40.675,26.02,70.6,5.13,1.910,8.05,6.5
"10/29/09","12:15:18",23.90,40.541,25.93,70.7,5.14,1.876,8.05,7.0
"10/29/09","12:30:18",23.91,41.338,26.49,69.1,5.01,1.844,8.04,5.9
"10/29/09","12:45:18",24.10,39.688,25.32,63.3,4.60,1.817,7.96,7.5
"10/29/09","13:00:18",24.31,35.517,22.39,77.6,5.72,1.778,8.01,7.1
"10/29/09","13:15:17",24.56,30.287,18.77,87.1,6.52,1.738,8.03,10.2
"10/29/09","13:30:17",25.31,21.311,12.77,91.8,7.02,1.701,8.03,18.4
"10/29/09","13:45:17",25.00,20.611,12.31,90.3,6.96,1.662,8.01,7.9
"10/29/09","14:00:18",24.90,18.380,10.87,88.3,6.88,1.631,7.97,11.4
"10/29/09","14:15:18",24.74,17.185,10.11,82.6,6.47,1.594,7.91,9.2
"10/29/09","14:30:17",24.56,16.061,9.39,75.5,5.97,1.546,7.85,4.6
"10/29/09","14:45:17",24.50,11.884,6.78,74.2,5.96,1.512,7.82,6.1
"10/29/09","15:00:17",24.46,9.187,5.14,73.6,5.97,1.478,7.80,6.5
"10/29/09","15:15:17",24.45,8.765,4.89,73.3,5.95,1.446,7.79,5.1
"10/29/09","15:30:18",24.47,8.028,4.45,73.7,6.00,1.421,7.79,3.3
"10/29/09","15:45:17",24.49,7.647,4.22,73.8,6.01,1.392,7.79,3.1
"10/29/09","16:00:17",24.53,6.987,3.83,74.6,6.08,1.373,7.79,2.1
"10/29/09","16:15:18",24.55,6.617,3.62,75.1,6.13,1.357,7.79,2.0
"10/29/09","16:30:18",24.58,5.836,3.16,75.6,6.18,1.358,7.79,1.6
"10/29/09","16:45:18",24.60,5.373,2.90,75.8,6.21,1.373,7.79,1.2
"10/29/09","17:00:19",24.58,4.759,2.54,75.5,6.20,1.382,7.80,1.2
"10/29/09","17:15:17",24.56,4.571,2.44,75.7,6.22,1.405,7.80,1.1
"10/29/09","17:30:17",24.60,22.505,13.56,84.6,6.52,1.427,7.91,5.7
"10/29/09","17:45:18",24.61,30.753,19.09,89.1,6.65,1.446,8.01,6.4
"10/29/09","18:00:17",24.60,31.851,19.84,81.8,6.08,1.479,7.96,6.8
"10/29/09","18:15:18",24.61,33.059,20.68,81.0,5.99,1.532,7.98,6.5
"10/29/09","18:30:17",24.62,33.418,20.92,78.1,5.77,1.563,7.95,4.7
"10/29/09","18:45:18",24.76,33.431,20.93,78.2,5.76,1.620,7.97,4.9
"10/29/09","19:00:17",25.68,27.949,17.17,100.1,7.42,1.670,8.10,4.2
"10/29/09","19:15:17",25.35,33.514,20.98,106.9,7.79,1.707,8.15,5.2
"10/29/09","19:30:18",25.22,35.458,22.33,104.0,7.54,1.719,8.14,6.1
"10/29/09","19:45:19",25.10,36.461,23.03,102.5,7.42,1.783,8.14,7.0
"10/29/09","20:00:18",25.07,36.644,23.16,104.7,7.57,1.814,8.16,6.4
"10/29/09","20:15:17",25.07,37.078,23.46,103.6,7.49,1.850,8.15,6.3
"10/29/09","20:30:18",25.06,37.296,23.61,104.0,7.51,1.882,8.17,6.3
"10/29/09","20:45:18",25.03,37.523,23.78,104.6,7.55,1.922,8.17,8.7
"10/29/09","21:00:18",24.87,38.413,24.40,104.1,7.51,1.947,8.18,10.0
"10/29/09","21:15:18",24.81,38.801,24.68,102.2,7.36,1.986,8.17,10.1
"10/29/09","21:30:17",24.79,38.671,24.59,99.8,7.20,2.010,8.16,10.6
"10/29/09","21:45:18",24.73,39.094,24.89,94.3,6.80,2.043,8.16,9.8
"10/29/09","22:00:18",24.69,39.601,25.25,97.7,7.03,2.065,8.16,9.0
"10/29/09","22:15:18",24.63,39.974,25.51,95.2,6.85,2.083,8.15,10.0
"10/29/09","22:30:18",24.67,39.954,25.50,89.9,6.46,2.095,8.13,9.5
"10/29/09","22:45:18",24.69,40.560,25.93,92.6,6.64,2.103,8.14,8.6
"10/29/09","23:00:19",24.68,41.231,26.40,89.7,6.42,2.105,8.13,10.1
"10/29/09","23:15:18",24.76,41.289,26.44,88.7,6.33,2.102,8.13,7.0
"10/29/09","23:30:18",24.77,41.397,26.52,88.4,6.31,2.085,8.13,6.7
"10/29/09","23:45:18",24.75,41.565,26.64,87.3,6.23,2.064,8.12,6.0
"10/30/09","00:00:18",24.80,41.387,26.51,85.4,6.09,2.039,8.12,5.7
"10/30/09","00:15:18",24.63,42.440,27.27,82.0,5.84,1.996,8.10,6.3
"10/30/09","00:30:18",24.53,43.075,27.72,80.1,5.70,1.959,8.09,7.5
"10/30/09","00:45:17",24.58,42.651,27.42,69.1,4.92,1.918,8.03,6.1
"10/30/09","01:00:18",25.24,38.479,24.44,81.3,5.82,1.872,8.09,6.7
"10/30/09","01:15:18",25.18,34.579,21.72,88.1,6.41,1.836,8.05,7.6
"10/30/09","01:30:18",25.12,29.524,18.25,89.4,6.65,1.788,8.04,11.5
"10/30/09","01:45:18",25.06,29.378,18.15,89.9,6.69,1.744,8.06,9.7
"10/30/09","02:00:18",24.97,27.289,16.74,85.2,6.41,1.706,7.99,7.2
"10/30/09","02:15:18",24.90,23.578,14.26,85.0,6.49,1.652,7.97,7.0
"10/30/09","02:30:18",24.90,22.792,13.74,84.1,6.44,1.598,7.97,6.5
"10/30/09","02:45:18",24.85,20.861,12.48,81.1,6.26,1.546,7.93,7.3
"10/30/09","03:00:18",24.79,18.465,10.93,79.1,6.17,1.502,7.90,6.7
"10/30/09","03:15:18",24.74,16.709,9.80,77.0,6.05,1.460,7.87,8.4
"10/30/09","03:30:17",24.69,15.148,8.81,75.7,5.98,1.415,7.85,8.6
"10/30/09","03:45:17",24.61,13.020,7.48,74.3,5.92,1.379,7.83,8.3
"10/30/09","04:00:18",24.54,11.084,6.29,74.0,5.95,1.347,7.82,8.0
"10/30/09","04:15:18",24.49,9.889,5.56,72.7,5.88,1.315,7.80,7.2
"10/30/09","04:30:18",24.44,8.748,4.88,71.9,5.84,1.289,7.79,8.4
"10/30/09","04:45:18",24.38,7.212,3.97,71.8,5.87,1.265,7.79,4.1
"10/30/09","05:00:18",24.29,5.512,2.98,72.5,5.97,1.251,7.80,2.9
"10/30/09","05:15:18",24.21,4.352,2.31,72.8,6.03,1.251,7.80,2.5
"10/30/09","05:30:18",24.14,3.852,2.03,73.3,6.08,1.262,7.80,1.9
"10/30/09","05:45:17",24.11,3.762,1.98,73.5,6.10,1.279,7.80,1.2
"10/30/09","06:00:17",24.10,3.719,1.96,73.6,6.12,1.317,7.80,1.1
"10/30/09","06:15:18",24.15,4.031,2.13,57.0,4.72,1.362,7.74,4.1
"10/30/09","06:30:18",24.20,5.021,2.69,22.6,1.87,1.409,7.69,5.1
"10/30/09","06:45:18",24.23,6.629,3.62,22.9,1.88,1.462,7.66,3.9
"10/30/09","07:00:19",24.19,8.185,4.54,60.7,4.96,1.522,7.75,3.6
"10/30/09","07:15:18",24.19,10.527,5.95,64.9,5.26,1.574,7.78,10.4
"10/30/09","07:30:18",24.31,19.615,11.67,65.1,5.10,1.631,7.80,11.3
"10/30/09","07:45:18",24.37,29.563,18.29,62.9,4.74,1.671,7.86,14.0
"10/30/09","08:00:18",24.35,32.311,20.16,66.2,4.94,1.724,7.93,15.4
"10/30/09","08:15:18",24.31,34.735,21.84,72.7,5.37,1.776,7.99,16.1
"10/30/09","08:30:18",24.37,34.948,21.99,76.4,5.63,1.824,8.02,9.1
"10/30/09","08:45:18",24.42,34.761,21.86,76.2,5.62,1.875,8.02,10.3
"10/30/09","09:00:18",24.46,34.626,21.76,75.3,5.55,1.922,8.01,48.3
"10/30/09","09:15:18",24.49,34.740,21.84,78.0,5.74,1.968,8.02,12.2
"10/30/09","09:30:18",24.55,34.759,21.85,80.2,5.90,2.020,8.04,22.7
"10/30/09","09:45:19",24.59,35.114,22.10,80.2,5.89,2.044,8.04,21.4
"10/30/09","10:00:19",24.70,34.022,21.34,71.3,5.25,2.090,8.04,10.1
"10/30/09","10:15:18",24.80,34.166,21.44,83.7,6.15,2.120,8.06,25.8
"10/30/09","10:30:18",24.86,35.091,22.08,85.7,6.26,2.144,8.08,18.5
"10/30/09","10:45:18",24.40,39.762,25.37,74.3,5.37,2.166,8.04,33.5
"10/30/09","11:00:18",24.28,42.039,26.99,74.0,5.31,2.180,8.07,38.7
"10/30/09","11:15:18",24.25,43.090,27.74,77.5,5.55,2.195,8.10,44.9
"10/30/09","11:30:18",24.22,44.100,28.46,80.4,5.73,2.190,8.11,28.1
"10/30/09","11:45:18",24.24,44.476,28.74,83.2,5.92,2.172,8.13,28.8
"10/30/09","12:00:18",24.25,44.821,28.98,83.2,5.91,2.150,8.13,16.9
"10/30/09","12:15:18",24.31,44.892,29.03,85.3,6.05,2.133,8.14,13.6
"10/30/09","12:30:18",24.23,45.756,29.66,78.8,5.58,2.106,8.12,18.0
"10/30/09","12:45:18",24.19,45.973,29.82,77.2,5.46,2.078,8.11,19.8
"10/30/09","13:00:18",24.24,45.545,29.51,77.7,5.50,2.035,8.12,13.8
"10/30/09","13:15:18",24.17,45.223,29.28,77.6,5.51,2.002,8.12,11.1
"10/30/09","13:30:18",24.25,45.099,29.18,72.2,5.12,1.959,8.08,12.6
"10/30/09","13:45:18",24.75,39.059,24.86,75.8,5.47,1.928,8.07,8.1
"10/30/09","14:00:18",25.36,35.742,22.52,91.8,6.63,1.881,8.12,16.9
"10/30/09","14:15:19",25.59,33.137,20.71,100.3,7.29,1.831,8.13,20.2
"10/30/09","14:30:18",25.43,31.961,19.91,94.5,6.92,1.780,8.10,7.3
"10/30/09","14:45:18",25.56,29.310,18.09,92.6,6.84,1.753,8.06,9.7
"10/30/09","15:00:18",25.39,26.114,15.94,86.2,6.46,1.716,8.01,12.1
"10/30/09","15:15:18",25.46,25.138,15.29,86.7,6.52,1.661,7.99,9.8
"10/30/09","15:30:18",25.48,24.084,14.59,86.2,6.50,1.618,7.97,7.5
"10/30/09","15:45:18",25.49,21.151,12.66,84.7,6.46,1.580,7.94,7.0
"10/30/09","16:00:19",25.43,19.177,11.38,83.1,6.39,1.543,7.92,10.2
"10/30/09","16:15:18",25.35,17.050,10.01,80.9,6.28,1.519,7.90,7.9
"10/30/09","16:30:19",25.28,14.878,8.64,79.6,6.23,1.489,7.87,6.7
"10/30/09","16:45:18",25.24,13.108,7.53,78.0,6.15,1.467,7.85,6.9
"10/30/09","17:00:19",25.22,11.808,6.73,76.7,6.08,1.448,7.83,7.0
"10/30/09","17:15:18",25.22,10.547,5.96,75.5,6.01,1.445,7.81,3.7
"10/30/09","17:30:18",25.18,9.319,5.22,74.9,5.99,1.451,7.80,3.2
"10/30/09","17:45:18",25.12,8.419,4.68,74.4,5.97,1.468,7.80,2.7
"10/30/09","18:00:17",25.08,7.960,4.40,73.8,5.94,1.493,7.79,2.1
"10/30/09","18:15:19",25.08,21.994,13.22,74.1,5.68,1.521,7.86,6.0
"10/30/09","18:30:18",25.00,31.143,19.35,76.0,5.63,1.535,7.95,6.3
"10/30/09","18:45:18",24.98,37.171,23.53,81.4,5.89,1.578,8.03,6.7
"10/30/09","19:00:18",25.03,36.911,23.35,72.9,5.27,1.624,7.97,6.4
"10/30/09","19:15:18",25.57,30.880,19.16,89.7,6.58,1.678,8.07,5.7
"10/30/09","19:30:18",25.65,32.706,20.41,97.9,7.12,1.736,8.10,5.0
"10/30/09","19:45:18",25.27,37.963,24.08,84.6,6.07,1.777,8.04,8.9
"10/30/09","20:00:18",25.42,36.389,22.97,90.0,6.48,1.814,8.06,6.7
"10/30/09","20:15:18",25.32,36.710,23.20,86.9,6.26,1.862,8.06,8.3
"10/30/09","20:30:17",25.22,39.050,24.85,91.8,6.56,1.913,8.09,13.0
"10/30/09","20:45:17",25.20,40.166,25.64,91.7,6.53,1.960,8.11,17.7
"10/30/09","21:00:18",25.29,39.564,25.21,94.8,6.75,1.992,8.12,20.8
"10/30/09","21:15:18",25.31,38.375,24.37,90.7,6.49,2.032,8.11,12.3
"10/30/09","21:30:18",25.25,39.313,25.03,94.2,6.72,2.070,8.12,12.5
"10/30/09","21:45:18",25.23,40.205,25.66,94.0,6.69,2.108,8.13,14.2
"10/30/09","22:00:18",25.24,40.272,25.71,95.1,6.76,2.145,8.14,12.0
"10/30/09","22:15:18",25.23,40.414,25.81,94.1,6.69,2.166,8.13,14.1
"10/30/09","22:30:18",25.23,40.603,25.95,94.3,6.70,2.187,8.15,15.0
"10/30/09","22:45:18",25.25,40.875,26.14,95.0,6.73,2.199,8.15,11.3
"10/30/09","23:00:18",25.16,41.563,26.63,92.8,6.57,2.217,8.14,16.4
"10/30/09","23:15:18",25.17,41.241,26.40,90.6,6.42,2.192,8.13,13.1
"10/30/09","23:30:18",25.19,41.374,26.49,91.9,6.51,2.193,8.14,11.2
"10/30/09","23:45:18",25.28,41.261,26.41,89.7,6.35,2.171,8.13,11.3
"10/31/09","00:00:19",25.27,41.887,26.86,88.0,6.21,2.157,8.12,14.8
"10/31/09","00:15:18",25.34,41.639,26.68,89.4,6.31,2.129,8.12,12.5
"10/31/09","00:30:18",25.31,42.042,26.97,86.9,6.13,2.106,8.12,12.2
"10/31/09","00:45:18",25.29,42.217,27.09,84.1,5.93,2.061,8.10,11.0
"10/31/09","01:00:17",25.28,42.223,27.10,79.6,5.61,2.026,8.08,10.3
"10/31/09","01:15:18",25.41,40.031,25.54,74.3,5.28,1.990,8.08,6.9
"10/31/09","01:30:18",25.47,39.238,24.97,88.3,6.28,1.947,8.11,14.1
"10/31/09","01:45:18",25.46,37.120,23.48,88.4,6.34,1.902,8.09,21.1
"10/31/09","02:00:17",25.26,33.235,20.79,88.2,6.45,1.855,8.06,30.9
"10/31/09","02:15:18",25.25,34.121,21.40,86.1,6.27,1.798,8.05,9.7
"10/31/09","02:30:18",25.07,31.481,19.58,81.4,6.01,1.758,8.00,7.8
"10/31/09","02:45:18",25.07,29.276,18.08,80.4,5.99,1.706,7.97,10.1
"10/31/09","03:00:18",25.01,26.247,16.04,80.1,6.04,1.657,7.94,11.2
"10/31/09","03:15:19",24.97,23.782,14.40,78.5,5.98,1.607,7.91,8.1
"10/31/09","03:30:18",24.93,21.881,13.14,77.2,5.92,1.553,7.89,7.6
"10/31/09","03:45:19",24.89,19.490,11.59,74.9,5.81,1.507,7.86,7.6
"10/31/09","04:00:18",24.84,16.838,9.88,73.6,5.77,1.469,7.83,7.0
"10/31/09","04:15:18",24.76,14.036,8.12,72.7,5.76,1.425,7.81,10.2
"10/31/09","04:30:19",24.72,12.537,7.18,72.0,5.74,1.393,7.79,6.7
"10/31/09","04:45:18",24.67,11.035,6.26,70.4,5.64,1.362,7.76,6.1
"10/31/09","05:00:19",24.63,9.770,5.49,69.9,5.64,1.330,7.76,6.4
"10/31/09","05:15:18",24.58,8.220,4.56,70.3,5.71,1.305,7.76,5.1
"10/31/09","05:30:18",24.51,6.380,3.48,70.7,5.78,1.282,7.76,5.6
"10/31/09","05:45:18",24.46,5.169,2.78,71.2,5.85,1.272,7.76,4.7
"10/31/09","06:00:18",24.43,4.634,2.47,71.5,5.89,1.268,7.76,4.2
"10/31/09","06:15:17",24.40,4.285,2.28,71.5,5.90,1.277,7.76,2.4
"10/31/09","06:30:17",24.39,4.087,2.16,71.7,5.92,1.307,7.76,2.1
"10/31/09","06:45:19",24.37,3.955,2.09,71.0,5.86,1.346,7.76,2.1
"10/31/09","07:00:18",24.47,11.040,6.26,69.0,5.56,1.386,7.73,5.0
"10/31/09","07:15:19",24.50,13.835,7.99,67.6,5.39,1.425,7.75,5.3
"10/31/09","07:30:18",24.43,12.710,7.29,64.9,5.20,1.484,7.74,10.3
"10/31/09","07:45:17",24.40,12.785,7.34,68.4,5.48,1.535,7.78,6.5
"10/31/09","08:00:17",24.39,13.415,7.73,69.8,5.58,1.591,7.81,7.9
"10/31/09","08:15:18",24.49,19.708,11.73,73.5,5.73,1.639,7.85,10.9
"10/31/09","08:30:18",24.59,26.227,16.03,71.9,5.46,1.702,7.86,12.3
"10/31/09","08:45:18",24.68,29.812,18.45,73.0,5.46,1.764,7.89,15.3
"10/31/09","09:00:18",24.75,32.077,20.00,73.7,5.46,1.823,7.90,19.3
"10/31/09","09:15:18",24.80,32.208,20.09,78.0,5.77,1.882,7.95,14.5
"10/31/09","09:30:18",24.98,31.686,19.73,79.2,5.86,1.934,7.97,15.8
"10/31/09","09:45:18",25.12,31.408,19.53,84.5,6.24,1.995,8.02,17.8
"10/31/09","10:00:18",25.29,35.548,22.39,89.7,6.49,2.030,8.09,19.2
"10/31/09","10:15:19",25.40,35.993,22.70,91.1,6.57,2.078,8.10,17.6
"10/31/09","10:30:19",25.47,35.867,22.61,91.5,6.59,2.119,8.09,18.9
"10/31/09","10:45:18",25.42,36.453,23.02,87.8,6.32,2.157,8.06,26.0
"10/31/09","11:00:17",25.41,36.690,23.18,85.8,6.17,2.150,8.04,33.9
"10/31/09","11:15:17",25.41,37.006,23.40,85.4,6.13,2.196,8.04,40.8
"10/31/09","11:30:17",25.51,37.503,23.75,87.7,6.27,2.202,8.05,27.9
"10/31/09","11:45:18",25.62,37.235,23.56,87.0,6.22,2.204,8.05,38.5
"10/31/09","12:00:18",25.66,37.083,23.45,88.0,6.30,2.209,8.05,26.7
"10/31/09","12:15:18",25.66,37.297,23.60,86.2,6.16,2.212,8.04,25.0
"10/31/09","12:30:18",25.71,37.447,23.71,87.7,6.25,2.211,8.05,31.4
"10/31/09","12:45:19",25.76,37.524,23.76,89.4,6.37,2.206,8.05,39.9
"10/31/09","13:00:18",25.91,38.247,24.27,91.2,6.46,2.201,8.05,34.3
"10/31/09","13:15:18",26.04,38.577,24.50,94.1,6.65,2.163,8.07,20.9
"10/31/09","13:30:18",26.11,38.601,24.51,92.9,6.55,2.134,8.06,15.5
"10/31/09","13:45:18",26.12,38.605,24.51,92.2,6.50,2.099,8.05,15.9
"10/31/09","14:00:18",25.98,37.782,23.94,98.4,6.98,2.049,8.10,21.1
"10/31/09","14:15:18",26.05,36.973,23.37,97.5,6.93,2.005,8.08,16.7
"10/31/09","14:30:18",26.01,38.031,24.11,94.3,6.68,1.952,8.06,27.1
"10/31/09","14:45:18",26.00,36.958,23.36,96.2,6.84,1.894,8.07,18.3
"10/31/09","15:00:17",26.18,35.430,22.29,102.2,7.29,1.852,8.10,15.4
"10/31/09","15:15:18",26.30,32.845,20.50,105.8,7.61,1.807,8.10,15.5
"10/31/09","15:30:18",26.29,30.798,19.09,107.0,7.76,1.760,8.10,12.3
"10/31/09","15:45:18",26.02,28.461,17.51,98.1,7.21,1.711,8.04,13.0
"10/31/09","16:00:18",25.93,27.760,17.04,95.6,7.06,1.663,8.02,14.5
"10/31/09","16:15:18",25.93,24.943,15.15,93.8,6.99,1.623,8.00,15.5
"10/31/09","16:30:18",25.91,22.973,13.85,91.4,6.87,1.601,7.97,12.3
"10/31/09","16:45:19",25.81,20.974,12.54,87.9,6.66,1.566,7.93,10.7
"10/31/09","17:00:18",25.71,18.531,10.96,84.3,6.46,1.538,7.89,9.8
"10/31/09","17:15:19",25.62,17.061,10.02,80.8,6.24,1.516,7.86,11.1
"10/31/09","17:30:19",25.56,14.532,8.42,79.0,6.16,1.494,7.83,9.5
"10/31/09","17:45:19",25.54,12.985,7.45,77.8,6.10,1.479,7.81,9.4
"10/31/09","18:00:19",25.48,11.957,6.82,76.5,6.03,1.488,7.79,7.2
"10/31/09","18:15:18",25.42,10.888,6.16,75.2,5.96,1.477,7.78,7.3
"10/31/09","18:30:18",25.35,9.731,5.46,74.2,5.90,1.491,7.77,5.7
"10/31/09","18:45:18",25.30,8.893,4.96,73.4,5.87,1.513,7.77,4.5
"10/31/09","19:00:18",25.27,8.421,4.68,72.7,5.82,1.553,7.77,4.1
"10/31/09","19:15:18",25.27,8.330,4.62,67.3,5.39,1.612,7.74,4.4
"10/31/09","19:30:19",25.44,13.737,7.92,71.4,5.59,1.651,7.76,6.1
"10/31/09","19:45:18",25.60,21.367,12.80,67.5,5.13,1.667,7.77,8.9
"10/31/09","20:00:18",25.61,22.401,13.48,62.3,4.72,1.728,7.74,10.6
"10/31/09","20:15:19",25.68,24.365,14.77,64.1,4.81,1.797,7.76,14.2
"10/31/09","20:30:18",25.63,22.536,13.57,71.5,5.41,1.820,7.84,12.3
"10/31/09","20:45:18",25.68,24.330,14.75,73.6,5.53,1.875,7.85,14.1
"10/31/09","21:00:18",25.74,26.430,16.15,72.2,5.37,1.926,7.84,18.1
"10/31/09","21:15:18",25.99,30.953,19.21,79.6,5.79,1.976,7.92,41.6
"10/31/09","21:30:17",26.15,35.745,22.51,86.1,6.14,2.029,8.00,18.1
"10/31/09","21:45:18",26.16,37.944,24.05,86.4,6.10,2.068,8.03,19.1
"10/31/09","22:00:18",26.12,40.127,25.59,86.8,6.08,2.110,8.05,20.8
"10/31/09","22:15:17",26.13,40.136,25.59,89.1,6.25,2.158,8.07,18.0
"10/31/09","22:30:18",26.06,39.636,25.24,87.8,6.17,2.187,8.06,26.7
"10/31/09","22:45:18",25.89,42.402,27.21,83.0,5.78,2.218,8.06,32.7
"10/31/09","23:00:19",25.81,43.460,27.97,78.6,5.46,2.214,8.05,36.8
"10/31/09","23:15:18",25.78,42.873,27.55,81.0,5.64,2.223,8.07,73.2
"10/31/09","23:30:18",25.69,42.388,27.21,85.9,6.01,2.234,8.11,42.1
"10/31/09","23:45:18",25.63,40.618,25.95,87.3,6.16,2.256,8.10,70.1
"11/01/09","00:00:18",25.58,39.173,24.93,87.4,6.20,2.243,8.10,42.4
"11/01/09","00:15:18",25.56,40.736,26.03,88.1,6.22,2.225,8.11,50.0